Погода в Чурьяково

Россия / Ярославская область     57°59′03″N   40°32′18″E
темп.,
°C
ветер,
м/с
пор.,
м/с
влажн.,
%
обл.,
%
осадки,
мм/ч
давл.,
гПа
погр.,
м
15 апреля, чт
чт1500:00+10з227085 0.0 101813
03:00+9с379483 0.0 1019173
06:00+9ссв4889100 0.0 1019457
09:00+9ссв4887100 0.0 1021511
12:00+10св5978100 0.0 1022660
15:00+10св6975100 0.0 1023764
18:00+8св61276100 0.0 1023696
21:00+6св51379100 0.0 1025576
16 апреля, пт
пт1600:00+5св5137773 0.0 1025588
03:00+4св5128277 0.0 1026492
06:00+3св5127582 0.0 1027441
09:00+6всв595870 0.0 1028577
12:00+10всв674398 0.0 1027959
15:00+12всв573372 0.0 10271215
18:00+11всв494256 0.0 1027741
21:00+6св4126330 0.0 1029294
17 апреля, сб
сб1700:00+4св4117214 0.0 1029264
03:00+2св310765 0.0 1030236
06:00+2св310785 0.0 1031250
09:00+7всв48525 0.0 1031603
12:00+11всв57400 0.0 10301297
15:00+12св56360 0.0 10301472
18:00+11св47462 0.0 1029531
21:00+6ссв37690 0.0 1030133
18 апреля, вс
вс1800:00+4ссв38770 0.0 1031145
03:00+3ссв378011 0.0 1031130
06:00+2ссв26806 0.0 1032137
09:00+8св35575 0.0 1032498
12:00+12св454372 0.0 10321362
15:00+13св4541100 0.0 10311571
18:00+11св3750100 0.0 1032418
21:00+7св396892 0.0 1032304
19 апреля, пн
пн1900:00+5в2677100 0.0 1034180
03:00+3в2581100 0.0 1036135
06:00+3в267897 0.0 1037211
09:00+6юв455498 0.0 1037651
12:00+9юв453884 0.0 10361398
15:00+10юв4434100 0.0 10351549
18:00+8юв364195 0.0 1035498
21:00+4вюв385780 0.0 1035171